London-Corbin, KY

6:58 AM EST on November 14, 2019 (GMT -0500)
London-Corbin / McKee

Weather History for KLOZ - May, 2019

Change the Weather History Date:

Saturday, May 25, 2019

  Actual Average Record
Temperature  
Mean Temperature 77 °F 67 °F  
Max Temperature 89 °F 78 °F 89 °F (2019)
Min Temperature 65 °F 56 °F 40 °F (2013)
Degree Days  
Heating Degree Days 0 2  
Month to date heating degree days 44 86  
Since 1 July heating degree days 4024 4187  
Cooling Degree Days 12 4  
Month to date cooling degree days 107 61  
Year to date cooling degree days 119 87  
Growing Degree Days 28 (Base 50)    
Moisture  
Dew Point 66 °F    
Average Humidity 72    
Maximum Humidity 100    
Minimum Humidity 44    
Precipitation  
Precipitation 0.00 in 0.17 in 1.23 in (1958)
Sea Level Pressure  
Sea Level Pressure 30.10 in    
Wind  
Wind Speed 6 mph (SW)    
Max Wind Speed 20 mph    
Max Gust Speed 28 mph    
Visibility 9 miles    
Events      
T = Trace of Precipitation, MM = Missing Value Source: NWS Daily Summary

Daily Weather History Graph

Daily Weather History Graph

Search for Another Location

Airport or City:

Astronomy

May. 25, 2019 Rise Set
Actual Time 6:21 AM EDT 8:45 PM EDT
Civil Twilight 5:51 AM EDT 9:15 PM EDT
Nautical Twilight 5:14 AM EDT 9:52 PM EDT
Astronomical Twilight 4:34 AM EDT 10:32 PM EDT
Moon 1:47 AM EDT (5/25) 12:17 PM EDT (5/25)
Length of Visible Light 15h 23m
Length of Day
14h 24m
Waning Gibbous, 60% of the Moon is Illuminated
May 25
Waning Gibbous
May 26
Last Quarter
Jun 3
New
Jun 10
First Quarter
Jun 17
Full

Hourly Weather History & Observations

Time (EDT) Temp. Heat Index Dew Point Humidity Pressure Visibility Wind Dir Wind Speed Gust Speed Precip Events Conditions
12:53 AM 70.0 °F - 68.0 °F 93% 30.06 in 9.0 mi Calm Calm - N/A   Clear
1:53 AM 69.1 °F - 66.9 °F 93% 30.08 in 10.0 mi Calm Calm - N/A   Clear
2:53 AM 68.0 °F - 66.9 °F 96% 30.09 in 9.0 mi Calm Calm - N/A   Clear
3:53 AM 66.0 °F - 66.0 °F 100% 30.09 in 6.0 mi Calm Calm - N/A   Clear
4:53 AM 66.9 °F - 66.0 °F 97% 30.09 in 7.0 mi Calm Calm - N/A   Clear
5:53 AM 66.0 °F - 64.9 °F 96% 30.09 in 8.0 mi South 3.5 mph - N/A   Partly Cloudy
6:53 AM 66.0 °F - 66.0 °F 100% 30.10 in 6.0 mi Calm Calm - N/A   Scattered Clouds
7:53 AM 71.1 °F - 68.0 °F 90% 30.12 in 10.0 mi South 3.5 mph - N/A   Clear
8:53 AM 75.9 °F - 69.1 °F 79% 30.14 in 10.0 mi WSW 8.1 mph - N/A   Scattered Clouds
9:53 AM 80.1 °F 83.2 °F 70.0 °F 71% 30.14 in 10.0 mi SW 8.1 mph - N/A   Clear
10:53 AM 82.0 °F 85.9 °F 70.0 °F 67% 30.15 in 10.0 mi WSW 11.5 mph 20.7 mph N/A   Partly Cloudy
11:53 AM 84.0 °F 87.0 °F 68.0 °F 58% 30.14 in 10.0 mi WSW 12.7 mph - N/A   Partly Cloudy
12:53 PM 86.0 °F 88.2 °F 66.0 °F 51% 30.11 in 10.0 mi SW 11.5 mph - N/A   Scattered Clouds
1:53 PM 87.1 °F 89.2 °F 66.0 °F 49% 30.10 in 10.0 mi SW 12.7 mph 23.0 mph N/A   Scattered Clouds
2:53 PM 88.0 °F 89.3 °F 64.0 °F 45% 30.10 in 10.0 mi SW 15.0 mph 21.9 mph N/A   Partly Cloudy
3:53 PM 89.1 °F 91.0 °F 64.9 °F 45% 30.09 in 10.0 mi WSW 18.4 mph 24.2 mph N/A   Partly Cloudy
4:53 PM 88.0 °F 89.3 °F 64.0 °F 45% 30.08 in 10.0 mi West 15.0 mph - N/A   Clear
5:53 PM 87.1 °F 89.2 °F 66.0 °F 49% 30.08 in 10.0 mi West 10.4 mph 18.4 mph N/A   Clear
6:53 PM 84.9 °F 86.6 °F 64.9 °F 51% 30.09 in 10.0 mi West 8.1 mph - N/A   Partly Cloudy
7:53 PM 84.0 °F 85.8 °F 64.9 °F 53% 30.10 in 10.0 mi West 5.8 mph - N/A   Clear
8:53 PM 81.0 °F 82.7 °F 64.9 °F 58% 30.09 in 10.0 mi Calm Calm - N/A   Clear
9:53 PM 78.1 °F - 64.9 °F 64% 30.09 in 10.0 mi SW 3.5 mph - N/A   Clear
10:53 PM 72.0 °F - 66.9 °F 84% 30.10 in 10.0 mi Calm Calm - N/A   Clear
11:53 PM 70.0 °F - 66.0 °F 87% 30.09 in 10.0 mi Calm Calm - N/A   Clear